Terminal Aerodrome Forecast
Issued by NWS

Home | Current Version | Previous Version | Text Only | Print | Product List | Glossary On
Versions: 1 2 3 4 5 6 7 8 9 10 11 12 13 14 15 16 17 18 19
000
FTUS45 KCYS 191100
TAFAIA
TAF
KAIA 191120Z 1912/2012 03015KT P6SM SCT080
     FM191400 05008KT P6SM BKN100
     FM192000 14008KT P6SM SCT100=

USA.gov is the U.S. government's official web portal to all federal, state and local government web resources and services.